Location: Newark
(52.3500°N, 175.9667°E)
Time: 00:34:51
(UTC+00:00)

N. Korean satellite - Pass Details

Date: 05 March 2021
Orbit: 453 x 499 km, 97.2° (Epoch: 11 April)

Event Time Altitude Azimuth Distance (km) Brightness Sun altitude
Rises 17:02:59 0° 23° (NNE) 2,528 10.7 -17.4°
Reaches altitude 10° 17:05:18 10° 38° (NE) 1,654 10.0 -17.0°
Maximum altitude 17:08:16 24° 94° (E) 1,026 9.0 -16.6°
Drops below altitude 10° 17:11:14 10° 151° (SSE) 1,664 9.5 -16.2°
Sets 17:13:35 0° 165° (SSE) 2,547 10.3 -15.8°
